sat.trackr.live / text

‹ back to catalog

STARLINK-3848

NORAD 52362 · 2022-045AH

PAYLOAD ACTIVE UNKNOWN

§ Identity

Operator
Country
US
Launch date
2022-04-29
Launch site
AFETR
Launch vehicle
Mass (kg)
RCS (m²)

Purposes: comms

External: N2YO · Heavens-Above · Gunter

§ Orbital elements

Epoch: 2026-09-20T00:46:22.353024Z

Period
94.01 min
Inclination
53.1608°
Eccentricity
0.0001115
Mean motion
15.31704205 rev/d
Perigee alt
470.0 km
Apogee alt
471.5 km
Semi-major
6,848.9 km
B*
2.2579e-5
RAAN
21.6310°
Arg perigee
83.9661°
Mean anomaly
276.1467°
Rev number
24,546

§ Raw data

STARLINK-38481 52362U 22045AH  26263.03220316  .00000336  00000+0  22579-4 0  99972 52362  53.1608  21.6310 0001115  83.9661 276.1467 15.31704205245469

JSON: /api/v1/satellites/52362 · /tle

For live sub-satellite position, see the globe view (requires WebGL).

§ Visibility from observer

Set your observer location to see the next 7 days of passes ≥ 10°. The values pass through the URL so the page stays shareable.

No JS? Fill the form by hand. The geolocation button needs JavaScript.